Location: Taipo
(41.0000°S, 175.9500°E)
Time: 07:21:31
(UTC+00:00)

Cosmos 1624 Rocket - Visible Passes

Search period start: 22 July 2024 00:00
Search period end: 01 August 2024 00:00
Orbit: 754 x 782 km, 74.0° (Epoch: 21 July)

Date Brightness Start Highest point End Pass type
(mag) Time Alt. Az. Time Alt. Az. Time Alt. Az.
28 Jul 6.3 07:50:58 10° S 07:51:35 13° S 07:51:35 13° S visible
29 Jul 5.8 07:14:18 10° S 07:15:46 16° SSE 07:15:46 16° SSE visible
29 Jul 6.8 08:55:59 10° SW 08:56:04 10° SW 08:56:04 10° SW visible
30 Jul 5.7 06:38:02 10° SSE 06:40:05 15° SE 06:40:05 15° SE visible
30 Jul 6.0 08:18:40 10° SSW 08:20:24 21° SSW 08:20:24 21° SSW visible
31 Jul 4.8 07:41:35 10° SSW 07:44:54 39° S 07:44:54 39° S visible
